Brisbane Airport Observation History
Time Wind Speed Temp Pressure Rel. Hum Rain
05/10:00pm SW 4-5 kts 13.9°c 1026.3 hPa 81% 0.0mm
05/09:30pm SSW 3-4 kts 15.1°c 1026.3 hPa 80% 0.0mm
05/09:00pm S 4-6 kts 15.5°c 1026.4 hPa 81% 0.0mm
05/08:30pm S 4-6 kts 15.9°c 1026.3 hPa 81% 0.0mm
05/08:00pm S 4-5 kts 15.5°c 1026.3 hPa 81% 0.0mm
05/07:30pm SSE 3-4 kts 14.7°c 1026.2 hPa 84% 0.0mm
05/07:00pm S 4-5 kts 15.3°c 1026.1 hPa 84% 0.0mm
05/06:30pm SSE 3-4 kts 16.1°c 1025.8 hPa 83% 0.0mm
05/06:00pm SE 3-5 kts 17.2°c 1025.4 hPa 79% 0.0mm
05/05:30pm ESE 4-7 kts 17.9°c 1025.1 hPa 73% 0.0mm
05/05:00pm E 6-9 kts 18.3°c 1024.9 hPa 71% 0.0mm
05/04:30pm ESE 6-9 kts 18.9°c 1024.8 hPa 69% 0.0mm
05/04:00pm ESE 8-13 kts 19.5°c 1024.8 hPa 64% 0.0mm
05/03:30pm ESE 9-15 kts 19.9°c 1024.9 hPa 63% 0.0mm
05/03:00pm ESE 9-14 kts 20.3°c 1024.8 hPa 58% 0.0mm
05/02:30pm ESE 9-14 kts 20.3°c 1024.9 hPa 59% 0.0mm
05/02:00pm ESE 10-16 kts 21.0°c 1025.0 hPa 59% 0.0mm
05/01:30pm ESE 9-14 kts 20.4°c 1025.2 hPa 58% 0.0mm
05/01:00pm ESE 9-14 kts 20.9°c 1025.7 hPa 57% 0.0mm
05/12:30pm ESE 10-15 kts 20.8°c 1026.2 hPa 57% 0.0mm
05/12:00pm ESE 9-14 kts 20.6°c 1026.8 hPa 54% 0.0mm
05/11:30am ESE 8-12 kts 21.2°c 1027.1 hPa 54% 0.0mm
05/11:00am S 9-14 kts 20.5°c 1027.7 hPa 54% 0.0mm
05/10:30am SSE 7-10 kts 20.2°c 1028.0 hPa 53% 0.0mm
05/10:00am SSW 9-15 kts 19.3°c 1028.3 hPa 53% 0.0mm
05/09:30am SSW 7-10 kts 18.6°c 1028.5 hPa 55% 0.0mm
05/09:00am SSW 9-13 kts 17.7°c 1028.4 hPa 57% 0.0mm
05/08:30am SW 11-15 kts 16.4°c 1028.2 hPa 61% 0.0mm
05/08:00am SSW 11-14 kts 15.0°c 1027.9 hPa 67% 0.0mm
05/07:30am SW 9-12 kts 13.8°c 1027.8 hPa 71% 0.0mm
05/07:00am SSW 8-10 kts 12.4°c 1027.4 hPa 77% 0.0mm
05/06:30am SSW 8-10 kts 11.6°c 1027.2 hPa 80% 0.0mm
05/06:00am SW 8-10 kts 11.9°c 1027.0 hPa 79% 0.0mm
05/05:30am SSW 8-11 kts 12.6°c 1026.8 hPa 75% 0.0mm
05/05:00am SW 8-10 kts 11.9°c 1026.5 hPa 79% 0.0mm
05/04:30am SW 8-9 kts 11.7°c 1026.4 hPa 80% 0.0mm
05/04:00am SW 9-11 kts 12.0°c 1026.5 hPa 79% 0.0mm
05/03:30am SW 9-11 kts 12.7°c 1026.5 hPa 75% 0.0mm
05/03:00am SW 8-10 kts 13.7°c 1026.7 hPa 68% 0.0mm
05/02:30am SSW 9-11 kts 14.8°c 1026.8 hPa 63% 0.0mm
05/02:00am SSW 9-12 kts 14.6°c 1026.8 hPa 66% 0.0mm
05/01:30am SSW 9-12 kts 14.5°c 1027.0 hPa 67% 0.0mm
05/01:00am SSW 8-10 kts 14.1°c 1027.9 hPa 70% 0.0mm
05/12:30am SSW 8-9 kts 14.3°c 1028.0 hPa 71% 0.0mm
05/12:00am SSW 7-10 kts 14.9°c 1028.0 hPa 70% 0.0mm
Time Wind Speed Temp Pressure Rel. Hum Rain
04/11:30pm SSW 5-7 kts 15.3°c 1028.3 hPa 68% 0.0mm
04/11:00pm SW 5-7 kts 15.1°c 1028.5 hPa 70% 0.0mm
04/10:30pm SSE 2-4 kts 16.0°c 1028.5 hPa 66% 0.0mm
04/10:00pm S 4-6 kts 15.6°c 1028.6 hPa 69% 0.0mm
04/09:30pm SSW 5-6 kts 15.7°c 1028.7 hPa 67% 0.0mm
04/09:00pm S 4-5 kts 15.7°c 1028.6 hPa 66% 0.0mm
04/08:30pm S 3-5 kts 15.8°c 1028.6 hPa 65% 0.0mm
04/08:00pm S 4-5 kts 15.5°c 1028.6 hPa 66% 0.0mm
04/07:30pm SSW 5-6 kts 15.4°c 1028.4 hPa 66% 0.0mm
04/07:00pm S 5-6 kts 15.7°c 1028.2 hPa 64% 0.0mm
04/06:30pm S 5-7 kts 16.2°c 1027.9 hPa 63% 0.0mm
04/06:00pm S 5-7 kts 17.0°c 1027.7 hPa 58% 0.0mm
04/05:30pm SSE 6-10 kts 17.8°c 1027.4 hPa 55% 0.0mm
04/05:00pm SSE 6-9 kts 18.2°c 1027.3 hPa 52% 0.0mm
04/04:30pm SSE 5-7 kts 18.2°c 1027.0 hPa 52% 0.0mm
04/04:00pm SSE 7-11 kts 19.0°c 1026.8 hPa 50% 0.0mm
04/03:30pm SSE 7-11 kts 19.6°c 1026.6 hPa 50% 0.0mm
04/03:00pm SSE 7-11 kts 20.1°c 1026.4 hPa 47% 0.0mm
04/02:30pm SSE 8-14 kts 20.1°c 1026.4 hPa 48% 0.0mm
04/02:00pm SSE 8-13 kts 19.7°c 1026.7 hPa 51% 0.0mm
04/01:30pm SE 9-16 kts 20.5°c 1026.6 hPa 49% 0.0mm
04/01:00pm SSE 9-15 kts 20.6°c 1026.8 hPa 49% 0.0mm
04/12:30pm SE 8-16 kts 20.2°c 1027.1 hPa 50% 0.0mm
04/12:00pm SSE 8-14 kts 20.0°c 1027.4 hPa 48% 0.0mm
04/11:30am SSE 9-15 kts 20.1°c 1027.7 hPa 47% 0.0mm
04/11:00am S 11-16 kts 19.4°c 1028.1 hPa 47% 0.0mm
04/10:30am S 10-16 kts 18.9°c 1028.3 hPa 46% 0.0mm
04/10:00am SSW 10-15 kts 19.0°c 1028.2 hPa 44% 0.0mm
04/09:30am SSW 13-16 kts 17.7°c 1028.2 hPa 42% 0.0mm
04/09:00am SSW 12-16 kts 16.0°c 1028.1 hPa 45% 0.0mm
04/08:30am SSW 12-17 kts 15.5°c 1027.8 hPa 48% 0.0mm
04/08:00am SSW 10-15 kts 14.1°c 1027.7 hPa 52% 0.0mm
04/07:30am SSW 8-10 kts 12.8°c 1027.5 hPa 56% 0.0mm
04/07:00am SSW 8-10 kts 11.5°c 1027.0 hPa 66% 0.0mm
04/06:30am SSW 8-13 kts 10.6°c 1026.7 hPa 69% 0.0mm
04/06:00am SW 9-10 kts 9.0°c 1026.1 hPa 77% 0.0mm
04/05:30am SSW 8-10 kts 10.2°c 1025.9 hPa 70% 0.0mm
04/05:00am SW 7-9 kts 9.0°c 1025.5 hPa 77% 0.0mm
04/04:30am SSW 7-8 kts 9.6°c 1025.2 hPa 76% 0.0mm
04/04:00am SSW 7-10 kts 9.7°c 1025.0 hPa 78% 0.0mm
04/03:30am SSW 8-10 kts 10.7°c 1024.9 hPa 75% 0.0mm
04/03:00am SW 7-9 kts 11.1°c 1024.9 hPa 73% 0.0mm
04/02:30am SW 10-13 kts 10.6°c 1025.0 hPa 76% 0.0mm
04/02:00am SSW 8-10 kts 10.5°c 1025.0 hPa 76% 0.0mm
04/01:30am SSW 8-11 kts 12.8°c 1025.2 hPa 64% 0.0mm
04/01:00am SSW 9-13 kts 13.1°c 1025.0 hPa 62% 0.0mm
04/12:30am SSW 9-11 kts 12.5°c 1025.0 hPa 65% 0.0mm
04/12:00am SSW 9-11 kts 12.1°c 1025.0 hPa 70% 0.0mm
Time Wind Speed Temp Pressure Rel. Hum Rain
03/11:30pm SW 8-9 kts 11.9°c 1025.0 hPa 71% 0.0mm
03/11:00pm SW 8-9 kts 11.9°c 1025.3 hPa 73% 0.0mm
03/10:30pm SSW 6-9 kts 13.0°c 1025.3 hPa 71% 0.0mm
03/10:00pm SSW 6-7 kts 14.6°c 1025.1 hPa 62% 0.0mm
03/09:30pm S 6-10 kts 14.8°c 1025.0 hPa 60% 0.0mm
03/09:00pm SSE 6-9 kts 15.7°c 1024.9 hPa 57% 0.0mm
03/08:30pm S 4-6 kts 14.4°c 1024.9 hPa 64% 0.0mm
03/08:00pm SSW 5-7 kts 13.4°c 1024.5 hPa 74% 0.0mm
03/07:30pm S 4-5 kts 13.4°c 1024.0 hPa 74% 0.0mm
03/07:00pm SE 3-5 kts 15.5°c 1023.5 hPa 66% 0.0mm
03/06:30pm ESE 5-7 kts 15.8°c 1022.9 hPa 65% 0.0mm
03/06:00pm E 6-7 kts 15.8°c 1022.3 hPa 65% 0.0mm
03/05:30pm E 5-6 kts 16.2°c 1021.8 hPa 55% 0.0mm
03/05:00pm ENE 5-6 kts 17.0°c 1021.1 hPa 43% 0.0mm
03/04:30pm NE 7-8 kts 17.8°c 1020.5 hPa 39% 0.0mm
03/04:00pm ENE 7-9 kts 18.8°c 1020.2 hPa 40% 0.0mm
03/03:30pm NE 8-9 kts 19.3°c 1019.9 hPa 37% 0.0mm
03/03:00pm SW 5-7 kts 21.6°c 1019.7 hPa 28% 0.0mm
03/02:30pm WSW 6-8 kts 21.1°c 1019.6 hPa 29% 0.0mm
03/02:00pm SSW 6-10 kts 20.7°c 1019.6 hPa 28% 0.0mm
03/01:30pm SSW 6-9 kts 20.1°c 1019.8 hPa 26% 0.0mm
03/01:00pm WSW 7-9 kts 19.9°c 1020.1 hPa 29% 0.0mm
03/12:30pm SW 9-15 kts 19.5°c 1020.3 hPa 29% 0.0mm
03/12:00pm SW 9-14 kts 19.1°c 1020.9 hPa 30% 0.0mm
03/11:30am SW 9-14 kts 18.0°c 1021.0 hPa 33% 0.0mm
03/11:00am SW 9-13 kts 18.2°c 1021.4 hPa 34% 0.0mm
03/10:30am WSW 11-15 kts 17.0°c 1021.6 hPa 36% 0.0mm
03/10:00am WSW 10-14 kts 15.8°c 1021.9 hPa 39% 0.0mm
03/09:30am SW 11-15 kts 15.5°c 1021.7 hPa 40% 0.0mm
03/09:00am WSW 12-15 kts 14.8°c 1021.8 hPa 41% 0.0mm
03/08:30am SW 9-14 kts 13.7°c 1021.8 hPa 44% 0.0mm
03/08:00am WSW 7-10 kts 12.3°c 1021.8 hPa 52% 0.0mm
03/07:30am WSW 10-13 kts 10.6°c 1021.3 hPa 60% 0.0mm
03/07:00am W 9-14 kts 8.9°c 1021.4 hPa 65% 0.0mm
03/06:30am WNW 5-6 kts 8.3°c 1021.1 hPa 66% 0.0mm
03/06:00am W 4-6 kts 8.6°c 1020.7 hPa 66% 0.0mm
03/05:30am WSW 4-6 kts 9.0°c 1020.2 hPa 63% 0.0mm
03/05:00am W 7-9 kts 7.2°c 1019.8 hPa 71% 0.0mm
03/04:30am WNW 2-5 kts 7.9°c 1019.6 hPa 65% 0.0mm
03/04:00am WSW 5-6 kts 8.0°c 1019.5 hPa 64% 0.0mm
03/03:30am ENE 3-5 kts 9.0°c 1019.8 hPa 60% 0.0mm
03/03:00am SSW 2-4 kts 9.3°c 1019.7 hPa 57% 0.0mm
03/02:30am WSW 8-11 kts 9.1°c 1019.6 hPa 58% 0.0mm
03/02:00am WSW 9-11 kts 10.2°c 1019.5 hPa 52% 0.0mm
03/01:30am W 7-8 kts 11.3°c 1019.6 hPa 48% 0.0mm
03/01:00am SW 8-9 kts 10.9°c 1020.0 hPa 49% 0.0mm
03/12:30am SSW 6-7 kts 10.9°c 1020.0 hPa 50% 0.0mm
03/12:00am W 5-7 kts 12.4°c 1020.2 hPa 44% 0.0mm